#timestamp,LO_Frequency,Hit,StdDev 
1556600415.8,286046998.4,N
1556600435.7,286046998.3,N
1556600455.5,286046998.6,N
1556600475.3,286046998.4,N
1556600495.2,286046998.7,N
1556600515.0,286046998.4,N
1556600515.9,286046998.4,N
1556600535.8,286046998.4,N
1556600555.6,286046999.4,N
1556600575.4,286046999.0,N
1556600595.3,286046998.5,N
1556600615.1,286046998.1,Y
1556600635.8,286047000.6,P
1556600655.7,286047000.2,N
1556600675.5,286047000.6,N
1556600695.4,286047000.5,N
1556600715.2,286047000.3,N
1556600735.0,286046999.7,N
1556600735.9,286046999.7,N
1556600755.8,286047000.5,N
1556600775.6,286047000.1,N
1556600795.5,286047000.4,N
1556600815.3,286047000.4,N
1556600835.1,286047000.5,N
1556600855.9,286047000.6,N
1556600875.7,286046999.8,N
1556600895.5,286047000.3,N
1556600915.4,286047000.6,N
1556600935.2,286047000.6,N
1556600955.1,286047000.5,N
1556600956.0,286047000.5,N
1556600975.8,286047000.9,N
1556600995.6,286046999.9,N
1556601015.5,286047001.0,N
1556601035.3,286047000.3,N
1556601055.1,286047000.3,N
1556601075.9,286047001.0,N
1556601095.7,286047000.3,N
1556601115.6,286047001.0,N
1556601135.4,286047000.9,N
1556601155.2,286046999.9,N
1556601175.1,286047000.9,N
1556601176.0,286047000.9,N
1556601195.8,286047000.9,N
1556601215.7,286047000.9,N
1556601235.5,286047000.6,N
1556601255.3,286047000.9,N
1556601275.2,286047000.0,N
1556601295.9,286047000.8,N
1556601315.7,286047000.8,N
1556601335.6,286047000.8,N
1556601355.4,286047000.3,N
1556601375.3,286047000.3,N
1556601395.1,286047001.0,N
1556601396.0,286047001.0,N
1556601415.8,286047000.9,N
1556601435.7,286047000.0,N
1556601455.5,286047000.5,N
1556601475.3,286047000.5,N
1556601495.2,286046999.9,N
1556601515.0,286046998.2,Y
1556601515.9,286046998.2,P
1556601535.8,286046998.1,N
1556601555.6,286046998.1,N
1556601575.5,286046998.4,N
1556601595.3,286046998.4,N
1556601615.1,286046998.8,N
1556601635.9,286046998.2,N
1556601655.7,286046998.8,N
1556601675.5,286046998.8,N
1556601695.4,286046998.4,N
1556601715.2,286046998.3,N
1556601735.1,286046998.4,N
1556601736.0,286046998.4,N
1556601755.8,286046998.7,N
1556601775.6,286046998.6,N
1556601795.5,286046998.3,Y
1556601815.3,286046999.9,P
1556601835.2,286046999.8,N
1556601855.9,286046999.7,N
1556601875.7,286046999.9,N
1556601895.6,286047000.3,N
1556601915.4,286046999.7,N
1556601935.2,286046999.9,N
1556601955.1,286047000.0,N
1556601956.0,286047000.0,N
1556601975.8,286047000.4,N
1556601995.7,286046999.8,N
1556602015.5,286047000.2,N
1556602035.3,286047000.9,N
1556602055.2,286047001.0,N
1556602075.0,286047000.0,N
1556602075.9,286047000.0,N
1556602095.8,286047001.0,N
1556602115.6,286047000.5,N
1556602135.4,286047000.7,N
1556602155.3,286046999.9,N
1556602175.1,286047000.9,N
1556602195.8,286047000.6,N
1556602215.7,286047000.6,N
1556602235.5,286047000.0,N
1556602255.4,286046999.9,N
1556602275.2,286047001.0,N
1556602295.0,286047000.6,N
1556602295.9,286047000.6,N
1556602315.8,286047000.9,N
1556602335.6,286047000.9,N
1556602355.5,286047000.9,N
1556602375.3,286047001.0,N
1556602395.1,286047000.3,N
1556602415.9,286047001.0,N
1556602435.7,286047000.7,N
1556602455.5,286047000.7,N
1556602475.4,286047001.0,N
1556602495.2,286047000.8,N
1556602515.1,286047000.9,N
1556602516.0,286047000.9,N
1556602535.8,286047000.6,N
1556602555.6,286047000.9,N
1556602575.5,286047000.9,N
1556602595.3,286046998.1,Y
1556602615.2,286046999.0,P
1556602635.9,286046998.9,N
1556602655.7,286046998.8,N
1556602675.6,286046998.1,N
1556602695.4,286046998.2,N
1556602715.2,286046998.8,N
1556602735.1,286046998.2,N
1556602736.0,286046998.2,N
1556602755.8,286046998.2,N
1556602775.7,286046998.9,N
1556602795.5,286046998.6,N
1556602815.3,286046999.0,N
1556602835.2,286046998.9,N
1556602855.0,286046998.9,N
1556602855.9,286046998.9,N
1556602875.8,286046998.6,N
1556602895.6,286046999.0,N
1556602915.4,286046998.4,N
1556602935.3,286046999.2,N
1556602955.1,286046998.4,N
1556602975.8,286046998.6,N
1556602995.7,286046998.6,N
1556603015.5,286046998.6,N
1556603035.4,286046998.6,N
1556603055.2,286046998.5,Y
1556603075.0,286046999.8,P
1556603075.9,286046999.8,N
1556603095.8,286047000.1,N
1556603115.6,286047000.1,N
1556603135.4,286047000.2,N
1556603155.3,286047000.2,N
1556603175.1,286047000.0,N
1556603195.9,286047000.0,N
1556603215.7,286047000.3,N
1556603235.5,286047002.8,Y
1556603255.4,286047000.0,P
1556603275.2,286046999.9,P
1556603295.1,286046999.9,P
1556603296.0,286046999.9,Y
1556603315.8,286047000.1,P
1556603335.6,286046999.8,N
1556603355.5,286046999.9,N
1556603375.3,286047000.5,Y
1556603395.2,286046999.8,P
1556603415.9,286047000.2,N
1556603435.7,286047000.1,N
1556603455.6,286047000.1,N
1556603475.4,286046999.8,N
1556603495.2,286047000.2,N
1556603515.1,286047000.0,N
1556603516.0,286047000.0,N
1556603535.8,286046999.9,N
1556603555.7,286047000.1,N
1556603575.5,286047000.1,N
1556603595.3,286046999.8,N
1556603615.2,286047000.4,N
1556603635.0,286047000.4,N
1556603635.9,286047000.4,N
1556603655.8,286046999.8,N
1556603675.6,286047000.1,N
1556603695.4,286046999.8,N
1556603715.3,286047002.8,Y
1556603735.1,286046999.7,P
1556603755.8,286047000.3,N
1556603775.7,286047000.4,N
1556603795.5,286046999.8,N
1556603815.4,286046999.7,N
1556603835.2,286046999.7,N
1556603855.0,286047000.3,N
1556603855.9,286047000.3,N
1556603875.8,286046999.9,N
1556603895.6,286046999.9,N
1556603915.5,286046999.9,N
1556603935.3,286047000.3,N
1556603955.1,286046999.7,N
1556603975.9,286046999.7,N
1556604025.7,286047002.8,E
